DW2633 Weather Reports


time (UTC)temp
C
wind
direction
speed
KPH
gust
KPH
rain 1hr
cm
rain 24hr
cm
rain mn
cm
humidity
%
barometer
mb
20260831062051 17 127 4.8 0.0 0.00 0.00 0.00 87 1017.7
20260831061551 17 123 3.2 0.0 0.00 0.00 0.00 86 1017.7
20260831061052 17 122 3.2 0.0 0.00 0.00 0.00 86 1017.7
20260831060550 18 121 3.2 0.0 0.00 0.00 0.00 85 1017.6
20260831060057 18 75 6.4 0.0 0.00 0.00 0.00 85 1017.6
20260831055553 18 64 8.0 0.0 0.00 0.00 0.00 87 1017.5
20260831055050 18 355 6.4 0.0 0.00 0.00 0.00 86 1017.5
20260831054550 18 347 8.0 0.0 0.00 0.00 0.00 87 1017.4
20260831054051 18 338 8.0 0.0 0.00 0.00 0.00 86 1017.5
20260831053550 18 344 9.7 0.0 0.00 0.00 0.00 86 1017.5
20260831053049 18 337 8.0 0.0 0.00 0.00 0.00 86 1017.6
20260831052548 18 329 8.0 0.0 0.00 0.00 0.00 86 1017.6
20260831052049 18 330 8.0 0.0 0.00 0.00 0.00 86 1017.7
20260831051553 18 5 8.0 0.0 0.00 0.00 0.00 87 1017.8
20260831051046 18 340 11.3 0.0 0.00 0.00 0.00 88 1017.8
20260831050545 17 349 12.9 0.0 0.00 0.00 0.00 89 1017.8
20260831050044 17 336 11.3 0.0 0.00 0.00 0.00 92 1017.7
20260831045544 17 311 9.7 0.0 0.00 0.00 0.00 92 1017.8
20260831045043 17 297 11.3 0.0 0.00 0.00 0.00 92 1017.8
20260831044544 17 282 12.9 0.0 0.00 0.00 0.00 92 1017.7
20260831044041 17 250 14.5 0.0 0.00 0.00 0.00 92 1017.7
20260831043542 17 265 14.5 0.0 0.00 0.00 0.00 92 1017.6
20260831043040 17 299 14.5 0.0 0.00 0.00 0.00 92 1017.6
20260831042541 17 270 14.5 0.0 0.00 0.00 0.00 92 1017.6
20260831042040 17 257 16.1 0.0 0.00 0.00 0.00 92 1017.5
20260831041630 17 258 16.1 0.0 0.00 0.00 0.00 92 1017.5
20260831041039 17 262 14.5 0.0 0.00 0.00 0.00 91 1017.5
20260831040537 17 242 12.9 0.0 0.00 0.00 0.00 91 1017.6
20260831040036 17 254 12.9 0.0 0.00 0.00 0.00 91 1017.6
20260831035536 17 252 14.5 0.0 0.00 0.00 0.00 91 1017.6
20260831035040 17 252 14.5 0.0 0.00 0.00 0.00 91 1017.6
20260831034536 17 252 14.5 0.0 0.00 0.00 0.00 91 1017.6
20260831034035 17 248 16.1 0.0 0.00 0.00 0.00 91 1017.7
20260831033535 17 260 16.1 0.0 0.00 0.00 0.00 90 1017.7
20260831033035 17 249 17.7 0.0 0.00 0.00 0.00 89 1017.8
20260831032534 17 257 11.3 0.0 0.00 0.00 0.00 89 1017.7
20260831032038 17 243 1.6 0.0 0.00 0.00 0.00 88 1017.7
20260831031535 17 173 0.0 0.0 0.00 0.00 0.00 88 1017.8
20260831031036 17 173 1.6 0.0 0.00 0.00 0.00 88 1017.8
20260831030538 17 211 3.2 0.0 0.00 0.00 0.00 87 1017.7
20260831030036 17 242 3.2 0.0 0.00 0.00 0.00 87 1017.7
20260831025534 18 221 4.8 0.0 0.00 0.00 0.00 87 1017.9
20260831025034 18 227 8.0 0.0 0.00 0.00 0.00 87 1017.9
20260831024540 18 257 8.0 0.0 0.00 0.00 0.00 87 1017.8
20260831024035 18 245 9.7 0.0 0.00 0.00 0.00 86 1017.8
20260831023536 18 252 8.0 0.0 0.00 0.00 0.00 86 1017.8
20260831023033 18 248 8.0 0.0 0.00 0.00 0.00 86 1017.7
20260831022532 18 234 9.7 0.0 0.00 0.00 0.00 86 1017.8
20260831022035 18 216 9.7 0.0 0.00 0.00 0.00 86 1017.8
20260831021542 18 223 6.4 0.0 0.00 0.00 0.00 86 1017.7
20260831021033 18 233 6.4 0.0 0.00 0.00 0.00 86 1017.8
20260831020535 18 224 6.4 0.0 0.00 0.00 0.00 86 1017.8
20260831020034 18 225 6.4 0.0 0.00 0.00 0.00 86 1017.8
20260831015532 18 223 4.8 0.0 0.00 0.00 0.00 85 1017.8
20260831015032 18 197 3.2 0.0 0.00 0.00 0.00 85 1017.7
20260831014532 18 217 3.2 0.0 0.00 0.00 0.00 85 1017.8
20260831014032 18 215 3.2 0.0 0.00 0.00 0.00 85 1017.7
20260831013532 18 219 1.6 0.0 0.00 0.00 0.00 85 1017.7
20260831013031 18 213 0.0 0.0 0.00 0.00 0.00 85 1017.7
20260831012531 18 220 1.6 0.0 0.00 0.00 0.00 85 1017.7
20260831012031 18 223 3.2 0.0 0.00 0.00 0.00 85 1017.7
20260831011544 18 213 4.8 0.0 0.00 0.00 0.00 85 1017.6
20260831011031 18 225 4.8 0.0 0.00 0.00 0.00 84 1017.5
20260831010530 18 226 8.0 0.0 0.00 0.00 0.00 85 1017.5
20260831010033 18 227 11.3 0.0 0.00 0.00 0.00 85 1017.4
20260831005531 18 249 12.9 0.0 0.00 0.00 0.00 86 1017.3
20260831005032 18 255 14.5 0.0 0.00 0.00 0.00 86 1017.2
20260831004530 18 247 14.5 0.0 0.00 0.00 0.00 86 1017.0
20260831004029 18 236 14.5 0.0 0.00 0.00 0.00 86 1017.1
20260831003533 19 263 14.5 0.0 0.00 0.00 0.00 86 1017.0
20260831003034 19 257 16.1 0.0 0.00 0.00 0.00 86 1016.9
20260831002529 19 275 17.7 0.0 0.00 0.00 0.00 86 1016.9
20260831002030 19 277 17.7 0.0 0.00 0.00 0.00 85 1016.9
20260831001532 19 282 19.3 0.0 0.00 0.00 0.00 85 1016.9
20260831001031 19 275 20.9 0.0 0.00 0.00 0.00 86 1016.7
20260831000529 19 265 20.9 0.0 0.00 0.00 0.00 86 1016.7
20260831000032 19 266 20.9 0.0 0.00 0.00 0.00 86 1016.7
20260830235529 19 277 20.9 0.0 0.00 0.00 0.00 86 1016.3
20260830235028 19 271 20.9 0.0 0.00 0.00 0.00 85 1016.4
20260830234528 19 261 19.3 0.0 0.00 0.00 0.00 85 1016.4
20260830234030 19 264 19.3 0.0 0.00 0.00 0.00 85 1016.2
20260830233528 19 241 19.3 0.0 0.00 0.00 0.00 86 1016.2
20260830233027 19 360 19.3 0.0 0.00 0.00 0.00 85 1016.3
20260830232527 19 264 20.9 0.0 0.00 0.00 0.00 85 1016.2
20260830232028 19 266 20.9 0.0 0.00 0.00 0.00 84 1016.2
20260830231527 19 256 17.7 0.0 0.00 0.00 0.00 85 1016.1
20260830231031 19 280 17.7 0.0 0.00 0.00 0.00 84 1016.1
20260830230526 19 275 19.3 0.0 0.00 0.00 0.00 84 1016.1
20260830230027 19 267 19.3 0.0 0.00 0.00 0.00 84 1016.1
20260830225526 19 268 16.1 0.0 0.00 0.00 0.00 85 1016.2
20260830225026 19 260 11.3 0.0 0.00 0.00 0.00 84 1016.2
20260830224526 19 244 11.3 0.0 0.00 0.00 0.00 85 1016.1
20260830224028 19 244 12.9 0.0 0.00 0.00 0.00 85 1016.1
20260830223526 19 247 16.1 0.0 0.00 0.00 0.00 85 1016.1
20260830223026 19 250 19.3 0.0 0.00 0.00 0.00 83 1016.1
20260830222524 20 271 20.9 0.0 0.00 0.00 0.00 84 1016.1
20260830222024 19 270 20.9 0.0 0.00 0.00 0.00 84 1016.1
20260830221524 19 284 20.9 0.0 0.00 0.00 0.00 83 1016.2
20260830221024 19 281 20.9 0.0 0.00 0.00 0.00 83 1016.2
20260830220524 19 281 19.3 0.0 0.00 0.00 0.00 83 1016.3
20260830220024 20 288 19.3 0.0 0.00 0.00 0.00 82 1016.3
20260830215524 19 264 16.1 0.0 0.00 0.00 0.00 83 1016.3
20260830215023 19 270 12.9 0.0 0.00 0.00 0.00 81 1016.3
20260830214523 19 281 12.9 0.0 0.00 0.00 0.00 81 1016.3
20260830214024 20 294 16.1 0.0 0.00 0.00 0.00 82 1016.3
20260830213523 20 311 17.7 0.0 0.00 0.00 0.00 81 1016.3
20260830213031 20 299 19.3 0.0 0.00 0.00 0.00 81 1016.4
20260830212523 20 307 20.9 0.0 0.00 0.00 0.00 81 1016.3
20260830212022 20 323 20.9 0.0 0.00 0.00 0.00 81 1016.2
20260830211522 20 311 24.1 0.0 0.00 0.00 0.00 78 1016.1
20260830211022 20 292 27.4 0.0 0.00 0.00 0.00 80 1016.1
20260830210521 21 292 29.0 0.0 0.00 0.00 0.00 80 1016.2
20260830210024 21 276 30.6 0.0 0.00 0.00 0.00 80 1016.2
20260830205521 21 288 30.6 0.0 0.00 0.00 0.00 78 1016.1
20260830205020 21 273 30.6 0.0 0.00 0.00 0.00 77 1016.0
20260830204520 22 282 32.2 0.0 0.00 0.00 0.00 77 1016.0
20260830204020 22 275 29.0 0.0 0.00 0.00 0.00 77 1015.8
20260830203520 22 265 24.1 0.0 0.00 0.00 0.00 79 1015.9
20260830203019 22 247 19.3 0.0 0.00 0.00 0.00 78 1015.8
20260830202519 22 242 14.5 0.0 0.00 0.00 0.00 75 1015.7
20260830202019 22 239 11.3 0.0 0.00 0.00 0.00 72 1015.6
20260830201518 22 221 11.3 0.0 0.00 0.00 0.00 72 1015.6
20260830201017 22 238 11.3 0.0 0.00 0.00 0.00 70 1015.7
20260830200518 23 237 11.3 0.0 0.00 0.00 0.00 71 1015.7
20260830200017 23 225 9.7 0.0 0.00 0.00 0.00 70 1015.6
20260830195517 23 238 9.7 0.0 0.00 0.00 0.00 70 1015.6
20260830195017 23 232 11.3 0.0 0.00 0.00 0.00 69 1015.6
20260830194521 24 248 8.0 0.0 0.00 0.00 0.00 68 1015.6
20260830194016 24 250 6.4 0.0 0.00 0.00 0.00 68 1015.6
20260830193517 24 242 6.4 0.0 0.00 0.00 0.00 70 1015.6
20260830193016 24 256 8.0 0.0 0.00 0.00 0.00 70 1015.6
20260830192515 24 214 6.4 0.0 0.00 0.00 0.00 70 1015.7
20260830192015 24 221 6.4 0.0 0.00 0.00 0.00 70 1015.8
20260830191519 24 227 6.4 0.0 0.00 0.00 0.00 66 1015.7
20260830191014 24 232 6.4 0.0 0.00 0.00 0.00 67 1015.8
20260830190514 24 248 6.4 0.0 0.00 0.00 0.00 66 1015.8
20260830190013 24 248 6.4 0.0 0.00 0.00 0.00 71 1015.9
20260830185515 24 252 6.4 0.0 0.00 0.00 0.00 69 1016.1
20260830185012 23 250 6.4 0.0 0.00 0.00 0.00 68 1016.1
20260830184515 23 238 6.4 0.0 0.00 0.00 0.00 69 1016.1
20260830184010 23 216 6.4 0.0 0.00 0.00 0.00 65 1016.3
20260830183512 23 238 4.8 0.0 0.00 0.00 0.00 67 1016.3
20260830183009 23 235 4.8 0.0 0.00 0.00 0.00 67 1016.4
20260830182508 23 226 6.4 0.0 0.00 0.00 0.00 68 1016.4
20260830182007 23 217 6.4 0.0 0.00 0.00 0.00 72 1016.4
20260830181507 23 242 8.0 0.0 0.00 0.00 0.00 70 1016.6
20260830181008 23 239 8.0 0.0 0.00 0.00 0.00 68 1016.6
20260830180504 23 242 8.0 0.0 0.00 0.00 0.00 67 1016.6
20260830180003 23 244 8.0 0.0 0.00 0.00 0.00 73 1016.7
20260830175502 22 222 8.0 0.0 0.00 0.00 0.00 72 1016.9
20260830175002 22 242 6.4 0.0 0.00 0.00 0.00 73 1016.8
20260830174604 22 229 6.4 0.0 0.00 0.00 0.00 74 1016.9
20260830174058 22 248 6.4 0.0 0.00 0.00 0.00 73 1017.0
20260830173557 22 235 4.8 0.0 0.00 0.00 0.00 76 1017.0
20260830173105 21 233 3.2 0.0 0.00 0.00 0.00 74 1017.0
20260830172556 21 225 3.2 0.0 0.00 0.00 0.00 74 1017.0
20260830172056 21 223 3.2 0.0 0.00 0.00 0.00 76 1016.9
20260830171629 21 207 3.2 0.0 0.00 0.00 0.00 73 1017.0
20260830171054 21 225 1.6 0.0 0.00 0.00 0.00 77 1017.1
20260830170554 21 182 1.6 0.0 0.00 0.00 0.00 76 1017.3
20260830170052 21 227 1.6 0.0 0.00 0.00 0.00 77 1017.4
20260830165555 21 228 1.6 0.0 0.00 0.00 0.00 74 1017.4
20260830165051 21 226 3.2 0.0 0.00 0.00 0.00 75 1017.5
20260830164551 21 222 4.8 0.0 0.00 0.00 0.00 73 1017.5
20260830164051 21 221 4.8 0.0 0.00 0.00 0.00 73 1017.5
20260830163551 21 227 1.6 0.0 0.00 0.00 0.00 75 1017.4
20260830163052 21 170 1.6 0.0 0.00 0.00 0.00 75 1017.5
20260830162551 21 222 3.2 0.0 0.00 0.00 0.00 74 1017.4
20260830162048 21 225 3.2 0.0 0.00 0.00 0.00 73 1017.5
20260830161549 21 211 1.6 0.0 0.00 0.00 0.00 74 1017.5
20260830161048 21 213 1.6 0.0 0.00 0.00 0.00 74 1017.6
20260830160547 21 178 1.6 0.0 0.00 0.00 0.00 74 1017.7
20260830160046 20 217 1.6 0.0 0.00 0.00 0.00 77 1017.8
20260830155547 20 220 1.6 0.0 0.00 0.00 0.00 77 1017.9
20260830155050 20 213 1.6 0.0 0.00 0.00 0.00 77 1018.0
20260830154544 20 146 1.6 0.0 0.00 0.00 0.00 76 1018.2
20260830154045 20 193 1.6 0.0 0.00 0.00 0.00 74 1018.3
20260830153543 20 211 1.6 0.0 0.00 0.00 0.00 73 1018.3
20260830153042 20 217 1.6 0.0 0.00 0.00 0.00 74 1018.4
20260830152541 20 221 1.6 0.0 0.00 0.00 0.00 75 1018.4
20260830152045 20 211 1.6 0.0 0.00 0.00 0.00 71 1018.5
20260830151544 20 227 3.2 0.0 0.00 0.00 0.00 73 1018.4
20260830151040 20 215 1.6 0.0 0.00 0.00 0.00 75 1018.5
20260830150539 20 229 1.6 0.0 0.00 0.00 0.00 73 1018.4
20260830150040 20 204 1.6 0.0 0.00 0.00 0.00 77 1018.5
20260830145536 20 145 3.2 0.0 0.00 0.00 0.00 78 1018.4
20260830145038 20 192 1.6 0.0 0.00 0.00 0.00 78 1018.4
20260830144543 19 155 1.6 0.0 0.00 0.00 0.00 78 1018.3
20260830144035 19 169 1.6 0.0 0.00 0.00 0.00 78 1018.3
20260830143533 19 217 0.0 0.0 0.00 0.00 0.00 78 1018.3
20260830143037 19 217 0.0 0.0 0.00 0.00 0.00 78 1018.5
20260830142531 19 218 1.6 0.0 0.00 0.00 0.00 77 1018.6
20260830142031 18 218 3.2 0.0 0.00 0.00 0.00 77 1018.4
20260830141532 18 227 1.6 0.0 0.00 0.00 0.00 79 1018.6
20260830141028 18 139 0.0 0.0 0.00 0.00 0.00 82 1018.5
20260830140527 18 223 0.0 0.0 0.00 0.00 0.00 83 1018.5
20260830140026 18 214 0.0 0.0 0.00 0.00 0.00 84 1018.4
20260830135528 17 214 1.6 0.0 0.00 0.00 0.00 86 1018.6
20260830135024 17 211 1.6 0.0 0.00 0.00 0.00 86 1018.7
20260830134534 17 200 1.6 0.0 0.00 0.00 0.00 87 1018.8
20260830134022 17 165 1.6 0.0 0.00 0.00 0.00 88 1018.7
20260830133522 17 165 0.0 0.0 0.00 0.00 0.00 88 1018.7
20260830133021 17 164 1.6 0.0 0.00 0.00 0.00 89 1018.8
20260830132520 17 155 0.0 0.0 0.00 0.00 0.00 90 1018.7
20260830132019 17 142 1.6 0.0 0.00 0.00 0.00 89 1018.7
20260830131520 16 142 3.2 0.0 0.00 0.00 0.00 90 1018.7
20260830131018 16 133 4.8 0.0 0.00 0.00 0.00 91 1018.7
20260830130516 16 141 6.4 0.0 0.00 0.00 0.00 91 1018.6
20260830130016 16 126 4.8 0.0 0.00 0.00 0.00 92 1018.7
20260830125515 16 146 1.6 0.0 0.00 0.00 0.00 93 1018.9
20260830125013 16 142 1.6 0.0 0.00 0.00 0.00 93 1019.1
20260830124512 15 142 1.6 0.0 0.00 0.00 0.00 94 1019.2
20260830124011 15 142 1.6 0.0 0.00 0.00 0.00 94 1019.2
20260830123511 15 142 3.2 0.0 0.00 0.00 0.00 94 1019.1
20260830123021 15 140 1.6 0.0 0.00 0.00 0.00 94 1019.2
20260830122509 15 140 1.6 0.0 0.00 0.00 0.00 94 1019.1
20260830122008 15 140 1.6 0.0 0.00 0.00 0.00 94 1019.1
20260830121507 15 140 0.0 0.0 0.00 0.00 0.00 94 1019.0
20260830121006 14 140 0.0 0.0 0.00 0.00 0.00 95 1019.1
20260830120505 14 140 1.6 0.0 0.00 0.00 0.00 95 1019.0
20260830120005 14 140 3.2 0.0 0.00 0.00 0.00 95 1018.9
20260830115504 14 139 3.2 0.0 0.00 0.00 0.00 94 1018.9
20260830115002 13 140 1.6 0.0 0.00 0.00 0.00 94 1018.9
20260830114501 13 139 1.6 0.0 0.00 0.00 0.00 94 1019.0
20260830114001 13 138 1.6 0.0 0.00 0.00 0.00 94 1019.0
20260830113500 13 139 6.4 0.0 0.00 0.00 0.00 94 1018.9
20260830113100 13 134 6.4 0.0 0.00 0.00 0.00 94 1018.9
20260830112559 13 132 8.0 0.0 0.00 0.00 0.00 94 1019.0
20260830112059 13 128 8.0 0.0 0.00 0.00 0.00 94 1019.0
20260830111558 13 130 6.4 0.0 0.00 0.00 0.00 94 1019.0
20260830111058 13 134 1.6 0.0 0.00 0.00 0.00 94 1019.1
20260830110557 13 134 0.0 0.0 0.00 0.00 0.00 93 1019.2
20260830105558 12 132 0.0 0.0 0.00 0.00 0.00 93 1019.4
20260830105056 12 132 0.0 0.0 0.00 0.00 0.00 93 1019.4
20260830104557 12 133 0.0 0.0 0.00 0.00 0.00 93 1019.3
20260830104059 12 134 0.0 0.0 0.00 0.00 0.00 93 1019.4
20260830103556 12 134 1.6 0.0 0.00 0.00 0.00 93 1019.4
20260830103056 12 134 3.2 0.0 0.00 0.00 0.00 93 1019.3
20260830102555 12 134 6.4 0.0 0.00 0.00 0.00 93 1019.3
20260830102055 12 134 6.4 0.0 0.00 0.00 0.00 93 1019.3
20260830101555 12 134 8.0 0.0 0.00 0.00 0.00 93 1019.3
20260830101058 12 135 8.0 0.0 0.00 0.00 0.00 93 1019.2
20260830100558 12 132 8.0 0.0 0.00 0.00 0.00 92 1019.2
20260830100107 12 135 8.0 0.0 0.00 0.00 0.00 92 1019.2
20260830095557 12 136 8.0 0.0 0.00 0.00 0.00 92 1019.2
20260830095057 12 134 6.4 0.0 0.00 0.00 0.00 92 1019.4
20260830094554 12 136 6.4 0.0 0.00 0.00 0.00 92 1019.4
20260830094052 12 135 6.4 0.0 0.00 0.00 0.00 92 1019.3
20260830093552 12 133 8.0 0.0 0.00 0.00 0.00 92 1019.3
20260830093052 12 132 8.0 0.0 0.00 0.00 0.00 92 1019.3
20260830092555 12 138 8.0 0.0 0.00 0.00 0.00 92 1019.3
20260830092056 12 133 8.0 0.0 0.00 0.00 0.00 91 1019.4
20260830091552 12 134 6.4 0.0 0.00 0.00 0.00 91 1019.4
20260830091052 12 132 6.4 0.0 0.00 0.00 0.00 91 1019.5
20260830090551 12 130 6.4 0.0 0.00 0.00 0.00 91 1019.5
20260830090051 12 129 4.8 0.0 0.00 0.00 0.00 91 1019.4
20260830085551 12 134 6.4 0.0 0.00 0.00 0.00 91 1019.4
20260830085051 12 134 8.0 0.0 0.00 0.00 0.00 91 1019.4
20260830084618 12 132 8.0 0.0 0.00 0.00 0.00 92 1019.5
20260830084052 12 132 6.4 0.0 0.00 0.00 0.00 92 1019.5
20260830083551 12 130 4.8 0.0 0.00 0.00 0.00 92 1019.6
20260830083050 12 132 4.8 0.0 0.00 0.00 0.00 92 1019.6
20260830082551 12 134 4.8 0.0 0.00 0.00 0.00 92 1019.7
20260830082049 12 134 6.4 0.0 0.00 0.00 0.00 92 1019.7
20260830081559 12 133 6.4 0.0 0.00 0.00 0.00 92 1019.6
20260830081049 12 134 6.4 0.0 0.00 0.00 0.00 92 1019.5
20260830080549 12 134 8.0 0.0 0.00 0.00 0.00 92 1019.5
20260830080049 12 133 8.0 0.0 0.00 0.00 0.00 92 1019.5
20260830075549 12 132 6.4 0.0 0.00 0.00 0.00 92 1019.6
20260830075048 12 129 3.2 0.0 0.00 0.00 0.00 91 1019.6
20260830074548 12 135 4.8 0.0 0.00 0.00 0.00 91 1019.5
20260830074048 12 135 6.4 0.0 0.00 0.00 0.00 91 1019.5
20260830073548 12 114 6.4 0.0 0.00 0.00 0.00 91 1019.5
20260830073048 12 129 6.4 0.0 0.00 0.00 0.00 91 1019.5
20260830072546 12 130 6.4 0.0 0.00 0.00 0.00 91 1019.5
20260830072048 12 135 8.0 0.0 0.00 0.00 0.00 91 1019.4
20260830071555 12 134 6.4 0.0 0.00 0.00 0.00 91 1019.5
20260830071046 12 134 3.2 0.0 0.00 0.00 0.00 91 1019.5
20260830070548 12 135 3.2 0.0 0.00 0.00 0.00 91 1019.4
20260830070046 12 133 6.4 0.0 0.00 0.00 0.00 91 1019.4
20260830065547 12 132 6.4 0.0 0.00 0.00 0.00 91 1019.3
20260830065045 12 134 6.4 0.0 0.00 0.00 0.00 91 1019.4
20260830064545 12 130 6.4 0.0 0.00 0.00 0.00 91 1019.3
20260830064045 12 134 6.4 0.0 0.00 0.00 0.00 91 1019.4
20260830063544 12 134 6.4 0.0 0.00 0.00 0.00 91 1019.4
20260830063048 12 132 6.4 0.0 0.00 0.00 0.00 91 1019.5
20260830062543 12 131 8.0 0.0 0.00 0.00 0.00 91 1019.6